Regional Weather Roundup
Issued by NWS Goodland, KS

Home | Current Version | Previous Version | Graphics & Text | Print | Product List | Glossary On
Versions: 1 2 3 4 5 6 7 8 9 10 11 12 13 14 15 16 17 18 19 20 21 22 23 24 25 26 27 28 29 30 31 32 33 34 35 36 37 38 39 40 41 42 43 44 45 46 47 48 49 50
000
ASUS43 KGLD 070408
RWRGLD

GOODLAND FORECAST AREA HOURLY WEATHER ROUNDUP
NATIONAL WEATHER SERVICE GOODLAND KS
1000 PM MDT MON JUL 06 2015

...OFFICIAL OBSERVATIONS...

CITY           SKY/WX    TMP DP  RH WIND       PRES   REMARKS
GOODLAND KS    CLOUDY    64  54  69 NE7       30.21R HAZE
HILL CITY KS   CLOUDY    67  55  65 N9        30.12S HAZE
IMPERIAL NEB   MOCLDY    63  52  67 NE7       30.22R
MCCOOK NEB     PTCLDY    62  55  77 N10       30.17R HAZE
AKRON CO       CLOUDY    63  52  67 E9        30.27R HAZE
BURLINGTON CO  CLOUDY    64  52  64 NE9       30.24S HAZE
LIMON CO       CLOUDY    60  53  77 E5        30.30R HAZE
$$

...UNOFFICIAL OBSERVATIONS...

CITY           SKY/WX    TMP DP  RH WIND       PRES   REMARKS
COLBY KS       CLEAR     68  55  64 N10       30.18F HAZE
GOVE KS          N/A     69  32  25 MISG        N/A
NORTON KS      CLEAR     63  52  67 N10       30.15R
SHARON SPRINGS   N/A     67  53  59 NE12        N/A
KIT CARSON CO    N/A     65  55  69 MISG        N/A
YUMA CO          N/A     65  53  65 E9          N/A
$$



USA.gov is the U.S. government's official web portal to all federal, state and local government web resources and services.